QPF
0.00 0.00 0.00 0.00 0.00 0.00 0.00 0.00 0.00 0.00 0.00 0.00 0.00 0.00 0.00 0.00 0.01 0.03 0.04 0.05 0.05 0.08 0.13 0.12 0.09 0.10 0.11 0.11 0.11 0.09 0.09 0.09 0.10 0.07 0.07 0.08 0.07 0.04 0.04 0.03 0.02 0.01 0.02 0.01
0.00 0.00 0.00 0.00 0.00 0.00 0.00 0.00 0.00 0.00 0.00 0.00 0.00 0.00 0.00 0.00 0.00 0.01 0.03 0.04 0.04 0.06 0.11 0.11 0.07 0.09 0.11 0.11 0.10 0.09 0.10 0.10 0.09 0.07 0.06 0.07 0.08 0.05 0.04 0.02 0.01 0.01 0.01 0.01
0.00 0.00 0.00 0.00 0.00 0.00 0.00 0.00 0.00 0.00 0.00 0.00 0.00 0.00 0.00 0.00 0.00 0.00 0.01 0.02 0.04 0.05 0.07 0.10 0.09 0.08 0.09 0.10 0.09 0.08 0.09 0.09 0.07 0.05 0.04 0.04 0.05 0.03 0.01 0.01 0.01 0.00 0.00 0.00
0.00 0.00 0.00 0.00 0.00 0.00 0.00 0.00 0.00 0.00 0.00 0.00 0.00 0.00 0.00 0.00 0.00 0.00 0.01 0.02 0.03 0.04 0.06 0.07 0.07 0.07 0.07 0.09 0.10 0.10 0.07 0.06 0.05 0.03 0.03 0.03 0.03 0.02 0.02 0.01 0.01 0.01 0.01 0.00
0.00 0.00 0.00 0.00 0.00 0.00 0.00 0.00 0.00 0.00 0.00 0.00 0.00 0.00 0.00 0.00 0.00 0.01 0.02 0.02 0.02 0.03 0.04 0.05 0.05 0.07 0.06 0.07 0.08 0.07 0.05 0.04 0.03 0.02 0.02 0.03 0.02 0.02 0.01 0.01 0.01 0.01 0.01 0.00
0.00 0.00 0.00 0.00 0.00 0.00 0.00 0.00 0.00 0.00 0.00 0.00 0.00 0.00 0.00 0.00 0.00 0.01 0.02 0.02 0.02 0.02 0.02 0.03 0.04 0.05 0.05 0.04 0.05 0.05 0.03 0.02 0.02 0.02 0.01 0.02 0.02 0.02 0.01 0.01 0.01 0.01 0.01 0.00
0.00 0.00 0.00 0.00 0.00 0.00 0.00 0.00 0.00 0.00 0.00 0.00 0.00 0.00 0.00 0.00 0.00 0.00 0.01 0.01 0.01 0.01 0.01 0.01 0.02 0.03 0.03 0.02 0.03 0.02 0.02 0.02 0.01 0.01 0.01 0.01 0.02 0.02 0.01 0.01 0.01 0.01 0.00 0.00
0.00 0.00 0.00 0.00 0.00 0.00 0.00 0.00 0.00 0.01 0.00 0.00 0.00 0.00 0.00 0.00 0.00 0.00 0.00 0.00 0.00 0.00 0.00 0.00 0.01 0.01 0.01 0.01 0.01 0.01 0.01 0.01 0.01 0.01 0.01 0.01 0.01 0.01 0.00 0.01 0.00 0.00 0.00 0.00
0.00 0.00 0.00 0.00 0.00 0.00 0.00 0.00 0.00 0.00 0.00 0.00 0.00 0.00 0.00 0.00 0.00 0.00 0.00 0.00 0.00 0.00 0.00 0.00 0.00 0.00 0.00 0.01 0.00 0.00 0.00 0.01 0.01 0.00 0.01 0.01 0.01 0.01 0.00 0.00 0.00 0.00 0.00 0.00
0.00 0.00 0.00 0.00 0.00 0.00 0.00 0.00 0.00 0.00 0.01 0.00 0.00 0.00 0.00 0.00 0.00 0.00 0.00 0.00 0.00 0.00 0.00 0.00 0.00 0.00 0.00 0.00 0.00 0.00 0.00 0.00 0.01 0.00 0.00 0.00 0.00 0.00 0.00 0.00 0.00 0.00 0.00 0.00
0.00 0.00 0.00 0.00 0.00 0.00 0.00 0.00 0.00 0.00 0.00 0.00 0.00 0.00 0.00 0.00 0.00 0.00 0.00 0.00 0.00 0.00 0.00 0.00 0.00 0.00 0.00 0.00 0.00 0.00 0.00 0.00 0.00 0.00 0.00 0.00 0.00 0.00 0.00 0.00 0.00 0.00 0.00 0.00
0.00 0.00 0.00 0.00 0.01 0.00 0.00 0.00 0.00 0.01 0.01 0.00 0.00 0.00 0.00 0.00 0.00 0.00 0.00 0.00 0.00 0.00 0.00 0.00 0.00 0.00 0.00 0.00 0.00 0.00 0.00 0.00 0.00 0.00 0.00 0.00 0.00 0.00 0.00 0.00 0.00 0.00 0.00 0.00
0.00 0.00 0.01 0.01 0.01 0.00 0.00 0.00 0.00 0.00 0.00 0.00 0.00 0.00 0.00 0.00 0.00 0.00 0.00 0.00 0.00 0.00 0.00 0.00 0.00 0.00 0.00 0.00 0.00 0.00 0.00 0.00 0.00 0.00 0.00 0.00 0.00 0.00 0.00 0.00 0.00 0.00 0.00 0.00
0.01 0.00 0.00 0.01 0.01 0.00 0.00 0.00 0.00 0.00 0.00 0.00 0.00 0.00 0.00 0.00 0.00 0.00 0.00 0.00 0.00 0.00 0.00 0.00 0.00 0.00 0.00 0.00 0.00 0.00 0.00 0.00 0.00 0.00 0.00 0.00 0.00 0.00 0.00 0.00 0.00 0.00 0.00 0.00
0.00 0.00 0.00 0.00 0.00 0.00 0.00 0.00 0.00 0.00 0.00 0.00 0.00 0.00 0.00 0.00 0.00 0.00 0.00 0.00 0.00 0.00 0.00 0.00 0.00 0.00 0.00 0.00 0.00 0.00 0.00 0.00 0.01 0.00 0.00 0.00 0.00 0.00 0.00 0.00 0.00 0.00 0.00 0.00
0.01 0.00 0.00 0.00 0.00 0.00 0.00 0.00 0.00 0.00 0.00 0.00 0.00 0.00 0.00 0.00 0.00 0.00 0.00 0.00 0.00 0.00 0.00 0.00 0.00 0.00 0.00 0.00 0.00 0.01 0.01 0.02 0.02 0.02 0.01 0.00 0.00 0.00 0.00 0.00 0.00 0.00 0.00 0.00
0.02 0.01 0.01 0.00 0.00 0.00 0.00 0.00 0.01 0.01 0.00 0.00 0.01 0.01 0.00 0.00 0.00 0.00 0.00 0.00 0.00 0.00 0.00 0.00 0.00 0.00 0.00 0.00 0.00 0.01 0.02 0.02 0.02 0.02 0.03 0.02 0.01 0.01 0.00 0.00 0.00 0.00 0.00 0.00
0.02 0.02 0.01 0.00 0.01 0.01 0.00 0.00 0.00 0.00 0.01 0.01 0.01 0.00 0.00 0.00 0.01 0.01 0.01 0.00 0.01 0.01 0.01 0.00 0.00 0.00 0.00 0.00 0.00 0.01 0.01 0.01 0.02 0.02 0.03 0.03 0.03 0.02 0.01 0.01 0.01 0.00 0.00 0.00
0.01 0.02 0.02 0.01 0.01 0.01 0.01 0.00 0.00 0.00 0.01 0.00 0.00 0.00 0.00 0.00 0.00 0.01 0.01 0.01 0.01 0.01 0.01 0.01 0.01 0.01 0.01 0.01 0.01 0.01 0.01 0.01 0.01 0.02 0.02 0.02 0.02 0.02 0.01 0.01 0.01 0.01 0.01 0.01
0.01 0.01 0.02 0.02 0.02 0.02 0.01 0.01 0.01 0.02 0.03 0.00 0.00 0.00 0.00 0.00 0.01 0.01 0.01 0.01 0.01 0.01 0.02 0.02 0.02 0.02 0.01 0.01 0.01 0.01 0.01 0.01 0.01 0.02 0.02 0.02 0.02 0.01 0.01 0.01 0.01 0.01 0.01 0.00
0.02 0.02 0.02 0.03 0.03 0.01 0.01 0.01 0.02 0.05 0.05 0.01 0.00 0.00 0.00 0.00 0.01 0.01 0.01 0.01 0.02 0.01 0.02 0.02 0.02 0.02 0.02 0.01 0.01 0.01 0.01 0.01 0.02 0.02 0.02 0.02 0.01 0.01 0.01 0.01 0.01 0.01 0.01 0.01
0.02 0.03 0.03 0.03 0.03 0.02 0.00 0.00 0.02 0.04 0.02 0.01 0.01 0.00 0.00 0.01 0.01 0.01 0.01 0.02 0.02 0.02 0.02 0.02 0.02 0.01 0.01 0.01 0.01 0.01 0.02 0.02 0.02 0.03 0.02 0.02 0.02 0.02 0.01 0.01 0.01 0.01 0.01 0.01
0.01 0.01 0.01 0.01 0.01 0.01 0.00 0.00 0.01 0.01 0.01 0.02 0.01 0.01 0.01 0.01 0.01 0.01 0.01 0.02 0.02 0.02 0.02 0.02 0.02 0.02 0.02 0.01 0.01 0.02 0.02 0.03 0.02 0.02 0.02 0.02 0.02 0.02 0.02 0.01 0.01 0.01 0.01 0.01
0.00 0.00 0.00 0.01 0.01 0.01 0.01 0.01 0.01 0.01 0.02 0.02 0.02 0.02 0.01 0.01 0.00 0.01 0.01 0.01 0.01 0.02 0.02 0.01 0.01 0.02 0.02 0.02 0.02 0.02 0.03 0.03 0.02 0.02 0.02 0.02 0.02 0.02 0.02 0.01 0.01 0.01 0.01 0.02
0.00 0.00 0.01 0.02 0.01 0.01 0.01 0.01 0.01 0.02 0.03 0.03 0.04 0.04 0.03 0.02 0.01 0.01 0.00 0.00 0.01 0.01 0.01 0.01 0.01 0.02 0.02 0.02 0.02 0.03 0.03 0.03 0.03 0.03 0.03 0.03 0.03 0.03 0.02 0.02 0.02 0.02 0.02 0.02
0.00 0.01 0.02 0.02 0.01 0.01 0.01 0.01 0.02 0.02 0.03 0.03 0.04 0.03 0.02 0.01 0.01 0.01 0.00 0.00 0.00 0.00 0.00 0.01 0.01 0.02 0.02 0.02 0.02 0.02 0.02 0.03 0.03 0.04 0.04 0.05 0.05 0.05 0.04 0.04 0.03 0.03 0.02 0.02
MSLP
1011.26 1011.39 1011.35 1011.18 1010.94 1010.70 1010.51 1010.42 1010.43 1010.54 1010.72 1010.93 1011.15 1011.37 1011.58 1011.78 1011.99 1012.22 1012.46 1012.70 1012.93 1013.12 1013.27 1013.38 1013.44 1013.50 1013.57 1013.70 1013.90 1014.19 1014.55 1014.98 1015.43 1015.88 1016.31 1016.68 1017.01 1017.29 1017.54 1017.78 1018.02 1018.27 1018.52 1018.76
1011.25 1011.30 1011.18 1010.96 1010.70 1010.48 1010.33 1010.30 1010.36 1010.51 1010.71 1010.91 1011.09 1011.25 1011.38 1011.52 1011.68 1011.88 1012.12 1012.39 1012.67 1012.92 1013.13 1013.29 1013.39 1013.46 1013.53 1013.65 1013.84 1014.11 1014.48 1014.92 1015.39 1015.87 1016.31 1016.70 1017.02 1017.29 1017.51 1017.72 1017.94 1018.17 1018.44 1018.72
1011.08 1011.06 1010.90 1010.67 1010.44 1010.26 1010.19 1010.22 1010.35 1010.54 1010.73 1010.90 1011.01 1011.08 1011.12 1011.16 1011.25 1011.41 1011.64 1011.94 1012.27 1012.60 1012.88 1013.10 1013.26 1013.37 1013.46 1013.59 1013.78 1014.05 1014.43 1014.88 1015.37 1015.87 1016.33 1016.73 1017.05 1017.30 1017.50 1017.68 1017.87 1018.09 1018.35 1018.66
1010.75 1010.69 1010.53 1010.33 1010.16 1010.08 1010.10 1010.23 1010.43 1010.65 1010.83 1010.94 1010.97 1010.92 1010.83 1010.76 1010.75 1010.85 1011.06 1011.37 1011.75 1012.15 1012.52 1012.83 1013.06 1013.23 1013.36 1013.51 1013.71 1014.00 1014.39 1014.85 1015.37 1015.89 1016.37 1016.78 1017.11 1017.35 1017.53 1017.68 1017.84 1018.04 1018.29 1018.59
1010.30 1010.24 1010.11 1009.98 1009.91 1009.94 1010.09 1010.33 1010.60 1010.85 1011.01 1011.06 1010.98 1010.80 1010.57 1010.37 1010.25 1010.26 1010.43 1010.75 1011.16 1011.63 1012.08 1012.47 1012.79 1013.03 1013.23 1013.42 1013.65 1013.96 1014.36 1014.84 1015.36 1015.90 1016.40 1016.82 1017.15 1017.39 1017.56 1017.69 1017.83 1018.01 1018.24 1018.54
1009.79 1009.75 1009.68 1009.64 1009.70 1009.87 1010.15 1010.49 1010.84 1011.12 1011.27 1011.25 1011.06 1010.75 1010.38 1010.04 1009.79 1009.72 1009.83 1010.12 1010.55 1011.07 1011.59 1012.07 1012.47 1012.79 1013.06 1013.30 1013.57 1013.90 1014.31 1014.80 1015.33 1015.88 1016.38 1016.82 1017.15 1017.40 1017.57 1017.69 1017.82 1017.98 1018.19 1018.47
1009.30 1009.29 1009.29 1009.36 1009.54 1009.84 1010.24 1010.68 1011.10 1011.40 1011.53 1011.46 1011.18 1010.76 1010.26 1009.78 1009.42 1009.25 1009.29 1009.55 1009.98 1010.52 1011.09 1011.64 1012.12 1012.52 1012.85 1013.14 1013.45 1013.80 1014.22 1014.71 1015.24 1015.78 1016.29 1016.73 1017.08 1017.33 1017.51 1017.65 1017.77 1017.92 1018.12 1018.37
1008.88 1008.90 1008.97 1009.14 1009.42 1009.83 1010.32 1010.84 1011.30 1011.62 1011.74 1011.62 1011.28 1010.77 1010.18 1009.61 1009.15 1008.89 1008.86 1009.07 1009.47 1010.01 1010.61 1011.20 1011.73 1012.19 1012.58 1012.93 1013.27 1013.64 1014.06 1014.54 1015.06 1015.59 1016.09 1016.54 1016.90 1017.17 1017.37 1017.52 1017.66 1017.81 1018.00 1018.24
1008.56 1008.62 1008.75 1008.98 1009.33 1009.80 1010.34 1010.90 1011.37 1011.69 1011.80 1011.66 1011.29 1010.75 1010.11 1009.48 1008.97 1008.64 1008.55 1008.70 1009.06 1009.56 1010.15 1010.75 1011.31 1011.81 1012.24 1012.62 1012.99 1013.38 1013.81 1014.28 1014.78 1015.30 1015.79 1016.23 1016.61 1016.90 1017.13 1017.31 1017.48 1017.65 1017.85 1018.08
1008.36 1008.45 1008.61 1008.87 1009.24 1009.72 1010.26 1010.80 1011.26 1011.57 1011.67 1011.53 1011.17 1010.63 1010.00 1009.37 1008.84 1008.49 1008.35 1008.44 1008.73 1009.18 1009.73 1010.30 1010.85 1011.36 1011.81 1012.22 1012.61 1013.01 1013.44 1013.90 1014.40 1014.90 1015.38 1015.82 1016.21 1016.53 1016.80 1017.02 1017.22 1017.43 1017.65 1017.89
1008.27 1008.38 1008.55 1008.80 1009.15 1009.58 1010.06 1010.54 1010.95 1011.22 1011.31 1011.19 1010.88 1010.40 1009.83 1009.26 1008.76 1008.41 1008.24 1008.28 1008.50 1008.87 1009.34 1009.85 1010.36 1010.84 1011.29 1011.71 1012.11 1012.53 1012.96 1013.42 1013.91 1014.40 1014.88 1015.33 1015.73 1016.08 1016.39 1016.66 1016.91 1017.15 1017.41 1017.67
1008.28 1008.40 1008.56 1008.77 1009.05 1009.39 1009.77 1010.14 1010.47 1010.69 1010.77 1010.69 1010.44 1010.06 1009.60 1009.13 1008.71 1008.39 1008.22 1008.21 1008.36 1008.63 1008.99 1009.41 1009.85 1010.28 1010.70 1011.11 1011.52 1011.95 1012.39 1012.86 1013.35 1013.84 1014.32 1014.78 1015.20 1015.58 1015.93 1016.24 1016.54 1016.83 1017.12 1017.41
1008.35 1008.48 1008.61 1008.77 1008.95 1009.17 1009.42 1009.66 1009.88 1010.04 1010.11 1010.06 1009.91 1009.66 1009.34 1009.00 1008.68 1008.43 1008.28 1008.24 1008.31 1008.47 1008.72 1009.03 1009.36 1009.72 1010.09 1010.48 1010.88 1011.31 1011.76 1012.24 1012.73 1013.23 1013.71 1014.18 1014.62 1015.03 1015.41 1015.77 1016.11 1016.45 1016.78 1017.10
1008.47 1008.61 1008.72 1008.81 1008.89 1008.97 1009.07 1009.17 1009.28 1009.37 1009.42 1009.42 1009.36 1009.25 1009.09 1008.90 1008.72 1008.56 1008.44 1008.38 1008.38 1008.44 1008.56 1008.74 1008.96 1009.22 1009.52 1009.86 1010.23 1010.65 1011.11 1011.59 1012.08 1012.58 1013.08 1013.55 1014.00 1014.43 1014.84 1015.23 1015.61 1015.99 1016.35 1016.70
1008.62 1008.77 1008.86 1008.89 1008.87 1008.82 1008.77 1008.74 1008.73 1008.75 1008.78 1008.83 1008.87 1008.89 1008.90 1008.88 1008.84 1008.78 1008.71 1008.64 1008.59 1008.56 1008.56 1008.60 1008.70 1008.84 1009.05 1009.32 1009.65 1010.04 1010.48 1010.95 1011.44 1011.93 1012.42 1012.90 1013.36 1013.80 1014.22 1014.63 1015.03 1015.43 1015.82 1016.19
1008.79 1008.95 1009.02 1008.99 1008.88 1008.72 1008.55 1008.40 1008.29 1008.24 1008.27 1008.35 1008.49 1008.65 1008.81 1008.95 1009.05 1009.10 1009.10 1009.05 1008.97 1008.86 1008.75 1008.67 1008.63 1008.66 1008.75 1008.93 1009.20 1009.53 1009.93 1010.37 1010.83 1011.31 1011.78 1012.24 1012.69 1013.13 1013.55 1013.97 1014.38 1014.79 1015.18 1015.57
1008.95 1009.11 1009.16 1009.08 1008.91 1008.66 1008.39 1008.15 1007.96 1007.87 1007.89 1008.02 1008.24 1008.52 1008.82 1009.12 1009.36 1009.53 1009.61 1009.59 1009.49 1009.33 1009.14 1008.95 1008.79 1008.70 1008.68 1008.75 1008.92 1009.18 1009.51 1009.89 1010.31 1010.75 1011.19 1011.62 1012.05 1012.47 1012.88 1013.29 1013.69 1014.09 1014.49 1014.87
1009.07 1009.21 1009.23 1009.12 1008.89 1008.59 1008.26 1007.95 1007.72 1007.62 1007.64 1007.81 1008.11 1008.50 1008.93 1009.36 1009.73 1010.02 1010.18 1010.22 1010.14 1009.96 1009.71 1009.44 1009.18 1008.97 1008.84 1008.80 1008.86 1009.02 1009.27 1009.57 1009.93 1010.31 1010.70 1011.10 1011.49 1011.88 1012.27 1012.66 1013.04 1013.42 1013.80 1014.17
1009.10 1009.20 1009.18 1009.03 1008.77 1008.44 1008.08 1007.75 1007.52 1007.42 1007.47 1007.69 1008.06 1008.54 1009.08 1009.63 1010.12 1010.51 1010.77 1010.87 1010.83 1010.66 1010.39 1010.07 1009.75 1009.45 1009.22 1009.08 1009.03 1009.09 1009.24 1009.46 1009.74 1010.05 1010.39 1010.74 1011.10 1011.45 1011.81 1012.16 1012.51 1012.87 1013.22 1013.56
1009.00 1009.04 1008.97 1008.78 1008.50 1008.16 1007.81 1007.50 1007.29 1007.23 1007.33 1007.60 1008.04 1008.59 1009.22 1009.87 1010.46 1010.95 1011.29 1011.48 1011.49 1011.36 1011.11 1010.78 1010.42 1010.07 1009.77 1009.55 1009.41 1009.38 1009.44 1009.58 1009.78 1010.03 1010.31 1010.61 1010.92 1011.24 1011.56 1011.87 1012.19 1012.50 1012.81 1013.12
1008.74 1008.70 1008.57 1008.35 1008.07 1007.75 1007.43 1007.17 1007.02 1007.02 1007.18 1007.52 1008.01 1008.63 1009.33 1010.04 1010.71 1011.28 1011.70 1011.97 1012.05 1011.98 1011.78 1011.47 1011.12 1010.76 1010.43 1010.16 1009.97 1009.86 1009.85 1009.93 1010.07 1010.26 1010.49 1010.75 1011.02 1011.29 1011.56 1011.83 1012.10 1012.37 1012.63 1012.89
1008.33 1008.20 1008.01 1007.77 1007.50 1007.22 1006.96 1006.78 1006.72 1006.80 1007.03 1007.44 1007.99 1008.66 1009.40 1010.15 1010.86 1011.49 1011.97 1012.30 1012.47 1012.47 1012.33 1012.09 1011.78 1011.45 1011.12 1010.85 1010.64 1010.50 1010.45 1010.48 1010.58 1010.73 1010.91 1011.13 1011.36 1011.59 1011.82 1012.04 1012.25 1012.46 1012.66 1012.87
1007.80 1007.59 1007.35 1007.10 1006.85 1006.63 1006.47 1006.40 1006.44 1006.61 1006.94 1007.40 1008.00 1008.70 1009.45 1010.22 1010.95 1011.59 1012.12 1012.50 1012.73 1012.80 1012.75 1012.58 1012.35 1012.08 1011.81 1011.56 1011.37 1011.24 1011.18 1011.18 1011.25 1011.37 1011.52 1011.70 1011.88 1012.07 1012.24 1012.40 1012.55 1012.70 1012.84 1012.98
1007.22 1006.94 1006.68 1006.44 1006.24 1006.11 1006.05 1006.09 1006.25 1006.54 1006.95 1007.48 1008.11 1008.82 1009.57 1010.31 1011.02 1011.65 1012.18 1012.59 1012.86 1013.00 1013.03 1012.95 1012.81 1012.63 1012.43 1012.25 1012.10 1012.00 1011.95 1011.95 1012.00 1012.09 1012.21 1012.34 1012.48 1012.60 1012.72 1012.81 1012.90 1012.97 1013.04 1013.11
1006.67 1006.37 1006.11 1005.91 1005.78 1005.74 1005.81 1005.98 1006.26 1006.66 1007.15 1007.73 1008.39 1009.08 1009.79 1010.49 1011.15 1011.74 1012.24 1012.64 1012.93 1013.12 1013.21 1013.22 1013.17 1013.08 1012.97 1012.87 1012.77 1012.71 1012.68 1012.68 1012.72 1012.78 1012.85 1012.93 1013.01 1013.07 1013.11 1013.14 1013.14 1013.14 1013.14 1013.15
1006.28 1005.99 1005.76 1005.62 1005.58 1005.64 1005.83 1006.12 1006.53 1007.02 1007.59 1008.21 1008.87 1009.54 1010.19 1010.82 1011.40 1011.91 1012.35 1012.72 1013.00 1013.21 1013.35 1013.42 1013.45 1013.45 1013.42 1013.38 1013.34 1013.31 1013.29 1013.28 1013.29 1013.31 1013.33 1013.34 1013.34 1013.33 1013.30 1013.24 1013.18 1013.11 1013.05 1012.99
Thickness
5793 5786 5785 5792 5794 5790 5786 5781 5779 5783 5787 5777 5771 5769 5770 5767 5759 5752 5748 5743 5738 5736 5737 5736 5736 5737 5738 5738 5737 5737 5736 5736 5736 5735 5733 5730 5729 5729 5727 5724 5720 5718 5717 5715
5782 5782 5796 5799 5795 5789 5786 5780 5782 5783 5782 5775 5771 5769 5773 5767 5760 5755 5749 5744 5741 5738 5735 5734 5734 5736 5736 5736 5736 5736 5736 5736 5736 5735 5733 5731 5730 5729 5727 5723 5719 5718 5716 5714
5778 5794 5800 5792 5789 5785 5785 5783 5781 5777 5778 5777 5769 5769 5769 5766 5762 5757 5753 5749 5746 5742 5738 5735 5735 5736 5737 5737 5738 5738 5737 5736 5736 5735 5733 5730 5727 5726 5724 5721 5720 5718 5716 5714
5785 5797 5793 5789 5789 5787 5781 5789 5783 5776 5769 5772 5766 5756 5768 5766 5758 5754 5751 5751 5750 5748 5745 5742 5739 5739 5739 5740 5740 5738 5737 5736 5735 5734 5734 5731 5728 5726 5725 5724 5722 5718 5715 5714
5784 5791 5787 5784 5790 5790 5786 5787 5782 5777 5772 5767 5769 5759 5770 5767 5758 5758 5756 5755 5755 5754 5750 5747 5745 5744 5744 5743 5742 5740 5738 5736 5735 5735 5734 5730 5730 5728 5727 5725 5721 5719 5717 5714
5790 5801 5796 5794 5797 5794 5788 5782 5778 5776 5774 5758 5765 5757 5762 5771 5767 5765 5763 5760 5759 5758 5756 5753 5751 5748 5746 5746 5744 5742 5738 5735 5735 5734 5734 5731 5729 5727 5725 5722 5721 5719 5719 5716
5778 5790 5799 5801 5788 5787 5783 5771 5761 5758 5758 5760 5768 5760 5767 5780 5780 5775 5768 5764 5763 5761 5759 5755 5752 5750 5749 5747 5746 5743 5739 5736 5736 5734 5733 5731 5729 5726 5723 5723 5722 5721 5721 5718
5769 5773 5794 5797 5790 5785 5781 5775 5755 5741 5749 5763 5767 5761 5777 5786 5785 5782 5777 5772 5767 5764 5762 5759 5757 5754 5752 5750 5748 5745 5742 5739 5737 5735 5733 5732 5729 5729 5728 5725 5726 5723 5722 5721
5773 5775 5795 5797 5797 5790 5778 5776 5786 5767 5762 5754 5766 5772 5783 5785 5780 5779 5776 5773 5769 5768 5766 5764 5761 5759 5757 5754 5751 5749 5744 5741 5739 5737 5734 5732 5730 5729 5729 5725 5723 5724 5721 5720
5784 5770 5786 5790 5789 5785 5785 5784 5770 5761 5742 5742 5758 5765 5772 5775 5775 5777 5775 5774 5773 5772 5770 5768 5766 5764 5762 5759 5755 5752 5748 5744 5741 5739 5736 5734 5731 5729 5727 5725 5723 5722 5719 5717
5784 5767 5773 5777 5772 5775 5768 5768 5767 5767 5762 5744 5742 5761 5787 5783 5782 5780 5780 5779 5778 5776 5774 5772 5769 5767 5765 5762 5758 5753 5749 5745 5743 5741 5738 5735 5732 5730 5727 5724 5722 5720 5717 5714
5780 5772 5765 5772 5781 5783 5778 5773 5767 5750 5750 5753 5750 5763 5792 5790 5790 5786 5784 5783 5782 5780 5778 5776 5773 5769 5765 5762 5760 5755 5752 5748 5746 5743 5739 5735 5732 5730 5727 5724 5722 5719 5716 5713
5773 5762 5748 5750 5757 5765 5765 5770 5770 5767 5760 5753 5748 5763 5787 5788 5787 5786 5783 5782 5781 5779 5778 5777 5774 5769 5766 5763 5761 5758 5755 5752 5749 5745 5740 5736 5732 5729 5726 5724 5721 5718 5715 5712
5773 5761 5755 5746 5752 5763 5759 5762 5764 5760 5752 5753 5757 5765 5777 5778 5777 5778 5779 5779 5779 5777 5776 5775 5772 5769 5767 5764 5762 5759 5757 5755 5751 5747 5741 5736 5733 5730 5727 5723 5720 5717 5714 5710
5764 5755 5758 5762 5764 5763 5760 5761 5760 5756 5759 5755 5762 5765 5768 5771 5770 5770 5773 5774 5774 5773 5772 5771 5770 5769 5766 5764 5761 5759 5757 5755 5751 5746 5742 5738 5734 5730 5725 5721 5718 5715 5711 5708
5754 5749 5750 5749 5756 5755 5752 5758 5759 5757 5759 5759 5760 5761 5768 5766 5766 5764 5765 5767 5767 5768 5769 5769 5768 5767 5764 5762 5760 5758 5755 5753 5749 5743 5740 5738 5733 5727 5723 5719 5715 5711 5708 5705
5747 5740 5736 5738 5747 5743 5739 5755 5755 5755 5759 5757 5752 5757 5759 5754 5750 5750 5752 5756 5759 5761 5763 5764 5765 5764 5762 5761 5759 5755 5753 5750 5744 5740 5737 5734 5730 5725 5720 5717 5712 5708 5704 5701
5737 5734 5734 5734 5729 5713 5744 5758 5757 5752 5753 5755 5752 5752 5750 5745 5744 5743 5744 5746 5750 5754 5756 5757 5759 5759 5759 5758 5756 5753 5750 5745 5740 5735 5732 5729 5725 5721 5716 5712 5708 5704 5701 5697
5734 5728 5725 5723 5721 5728 5741 5747 5747 5742 5740 5746 5744 5743 5743 5744 5743 5737 5736 5738 5740 5744 5747 5749 5751 5752 5751 5750 5748 5745 5742 5738 5733 5730 5727 5724 5720 5716 5711 5706 5702 5699 5695 5692
5723 5725 5722 5716 5709 5711 5731 5742 5746 5738 5727 5735 5736 5734 5736 5737 5733 5724 5725 5728 5730 5733 5735 5737 5740 5740 5739 5739 5739 5734 5731 5728 5725 5723 5720 5717 5713 5708 5704 5700 5696 5693 5689 5686
5711 5712 5714 5711 5709 5723 5732 5737 5737 5717 5715 5726 5728 5727 5727 5721 5717 5714 5716 5716 5718 5720 5722 5723 5723 5722 5722 5723 5723 5720 5718 5715 5715 5714 5711 5708 5703 5698 5695 5691 5687 5684 5681 5678
5712 5710 5707 5710 5703 5708 5726 5729 5722 5716 5719 5720 5718 5717 5714 5710 5707 5705 5704 5703 5705 5705 5707 5708 5707 5705 5705 5707 5706 5703 5700 5701 5701 5700 5698 5695 5692 5690 5686 5681 5678 5675 5671 5668
5714 5716 5720 5715 5710 5713 5720 5719 5717 5718 5713 5711 5710 5707 5704 5700 5696 5694 5692 5692 5692 5692 5692 5694 5692 5690 5690 5690 5690 5687 5686 5687 5686 5685 5683 5681 5680 5677 5675 5671 5668 5664 5661 5660
5708 5710 5710 5706 5707 5708 5709 5710 5710 5710 5706 5704 5701 5698 5695 5688 5685 5682 5680 5679 5679 5679 5679 5680 5679 5677 5675 5675 5674 5673 5672 5672 5671 5669 5669 5669 5668 5665 5663 5659 5658 5656 5654 5652
5699 5702 5701 5696 5697 5698 5698 5698 5699 5697 5695 5692 5689 5685 5682 5677 5673 5670 5667 5666 5666 5665 5665 5665 5665 5663 5661 5660 5658 5659 5659 5657 5657 5656 5656 5656 5656 5653 5649 5647 5644 5643 5640 5638
5688 5687 5689 5689 5689 5691 5686 5689 5689 5685 5681 5678 5674 5670 5668 5666 5661 5659 5656 5655 5654 5653 5653 5652 5652 5650 5648 5647 5646 5645 5645 5644 5644 5644 5644 5644 5643 5640 5639 5636 5633 5628 5624 5621